User: anonymous   Login
Location: Theydon Bois
(51.6750°N, 0.1050°E)
Time: 13:50:23
(UTC+00:00)
Language:

Cosmos 1420 Rocket - Orbit

View from above orbital plane
View from above orbital plane
View from above satellite
View from above satellite

Ground track
Ground track

The orbit data is extracted from the following two-line orbital elements,

1 13649U 82109B   18051.10179463  .00000078  00000-0  35119-4 0  9997
2 13649  73.9989 275.1903 0018229  10.5388 146.3152 14.37095344847230
Epoch (UTC): 20 February 2018 02:26:35
Eccentricity: 0.0018229
inclination: 73.9989°
perigee height: 755 km
apogee height: 781 km
right ascension of ascending node: 275.1903°
argument of perigee: 10.5388°
revolutions per day: 14.37095344
mean anomaly at epoch: 146.3152°
orbit number at epoch: 84723

The dashed part of the orbit path shows where the satellite is in the earth's shadow,  

DLR